Time,TemperatureF,DewpointF,PressureIn,WindDirection,WindDirectionDegrees,WindSpeedMPH,WindSpeedGustMPH,Humidity,HourlyPrecipIn,Conditions,Clouds,dailyrainin,SolarRadiationWatts/m^2,SoftwareType,DateUTC
2013-02-26 00:02:00,40.3,36.9,30.21,NNW,346,0.0,4.0,87,0.00,,,0.00,0.0,meteohub,2013-02-26 08:02:00,
2013-02-26 00:07:00,40.3,36.7,30.21,NNW,346,1.0,4.0,87,0.00,,,0.00,0.0,meteohub,2013-02-26 08:07:00,
2013-02-26 00:12:00,40.3,36.7,30.21,NNW,346,1.0,4.0,87,0.00,,,0.00,0.0,meteohub,2013-02-26 08:12:00,
2013-02-26 00:17:00,40.1,36.5,30.21,NNW,346,0.0,3.0,87,0.00,,,0.00,0.0,meteohub,2013-02-26 08:17:00,
2013-02-26 00:22:00,40.1,36.5,30.21,NNW,346,0.0,2.0,87,0.00,,,0.00,0.0,meteohub,2013-02-26 08:22:00,
2013-02-26 00:27:00,40.1,36.3,30.21,NNW,346,1.0,2.0,86,0.00,,,0.00,0.0,meteohub,2013-02-26 08:27:00,
2013-02-26 00:32:00,39.7,35.8,30.21,NNW,346,0.0,2.0,85,0.00,,,0.00,0.0,meteohub,2013-02-26 08:32:00,
2013-02-26 00:37:00,39.4,35.2,30.21,NNW,346,1.0,2.0,84,0.00,,,0.00,0.0,meteohub,2013-02-26 08:37:00,
2013-02-26 00:42:00,39.2,35.2,30.21,NNW,346,0.0,2.0,85,0.00,,,0.00,0.0,meteohub,2013-02-26 08:42:00,
2013-02-26 00:47:00,39.0,35.1,30.21,NNW,346,0.0,2.0,85,0.00,,,0.00,0.0,meteohub,2013-02-26 08:47:00,
2013-02-26 00:52:00,39.0,35.4,30.21,NNW,346,2.0,3.0,86,0.00,,,0.00,0.0,meteohub,2013-02-26 08:52:00,
2013-02-26 00:57:00,38.8,35.2,30.21,North,350,3.0,3.0,86,0.00,,,0.00,0.0,meteohub,2013-02-26 08:57:00,
2013-02-26 01:02:00,38.7,35.1,30.21,North,350,3.0,5.0,86,0.00,,,0.00,0.0,meteohub,2013-02-26 09:02:00,
2013-02-26 01:07:00,38.5,35.2,30.21,NNW,345,1.0,5.0,87,0.00,,,0.00,0.0,meteohub,2013-02-26 09:07:00,
2013-02-26 01:12:00,38.3,35.2,30.20,NNW,345,1.0,5.0,88,0.00,,,0.00,0.0,meteohub,2013-02-26 09:12:00,
2013-02-26 01:17:00,38.5,35.4,30.20,NNW,345,0.0,4.0,88,0.00,,,0.00,0.0,meteohub,2013-02-26 09:17:00,
2013-02-26 01:22:00,38.8,36.0,30.20,NNW,344,1.0,2.0,89,0.00,,,0.00,0.0,meteohub,2013-02-26 09:22:00,
2013-02-26 01:27:00,39.2,36.3,30.20,NNW,344,0.0,2.0,89,0.00,,,0.00,0.0,meteohub,2013-02-26 09:27:00,
2013-02-26 01:32:00,39.2,36.3,30.20,NNW,344,2.0,2.0,89,0.00,,,0.00,0.0,meteohub,2013-02-26 09:32:00,
2013-02-26 01:37:00,39.2,36.0,30.20,NNW,344,0.0,2.0,88,0.00,,,0.00,0.0,meteohub,2013-02-26 09:37:00,
2013-02-26 01:42:00,39.0,35.6,30.20,NNW,344,0.0,2.0,87,0.00,,,0.00,0.0,meteohub,2013-02-26 09:42:00,
2013-02-26 01:47:00,38.8,35.6,30.21,NNW,344,2.0,2.0,87,0.00,,,0.00,0.0,meteohub,2013-02-26 09:47:00,
2013-02-26 01:52:00,38.7,35.1,30.21,NNW,346,4.0,4.0,86,0.00,,,0.00,0.0,meteohub,2013-02-26 09:52:00,
2013-02-26 01:57:00,38.3,34.7,30.20,North,355,3.0,4.0,86,0.00,,,0.00,0.0,meteohub,2013-02-26 09:57:00,
2013-02-26 02:02:00,37.9,34.3,30.20,NNW,342,2.0,4.0,86,0.00,,,0.00,0.0,meteohub,2013-02-26 10:02:00,
2013-02-26 02:07:00,37.8,34.5,30.20,NNW,340,3.0,5.0,87,0.00,,,0.00,0.0,meteohub,2013-02-26 10:07:00,
2013-02-26 02:12:00,37.6,34.3,30.20,NNW,340,0.0,5.0,87,0.00,,,0.00,0.0,meteohub,2013-02-26 10:12:00,
2013-02-26 02:17:00,37.6,34.5,30.20,NNW,340,0.0,5.0,88,0.00,,,0.00,0.0,meteohub,2013-02-26 10:17:00,
2013-02-26 02:22:00,37.6,34.5,30.20,NNW,340,0.0,3.0,88,0.00,,,0.00,0.0,meteohub,2013-02-26 10:22:00,
2013-02-26 02:27:00,37.6,34.5,30.21,NNW,340,0.0,2.0,88,0.00,,,0.00,0.0,meteohub,2013-02-26 10:27:00,
2013-02-26 02:32:00,37.4,34.3,30.20,NNW,340,0.0,2.0,88,0.00,,,0.00,0.0,meteohub,2013-02-26 10:32:00,
2013-02-26 02:37:00,37.4,34.7,30.20,NNW,340,0.0,3.0,89,0.00,,,0.00,0.0,meteohub,2013-02-26 10:37:00,
2013-02-26 02:42:00,37.2,34.2,30.19,NNW,340,0.0,3.0,88,0.00,,,0.00,0.0,meteohub,2013-02-26 10:42:00,
2013-02-26 02:47:00,37.2,34.2,30.19,NNW,340,2.0,2.0,88,0.00,,,0.00,0.0,meteohub,2013-02-26 10:47:00,
2013-02-26 02:52:00,37.0,34.3,30.19,NNW,340,1.0,3.0,89,0.00,,,0.00,0.0,meteohub,2013-02-26 10:52:00,
2013-02-26 02:57:00,37.0,34.3,30.19,NNW,340,1.0,3.0,89,0.00,,,0.00,0.0,meteohub,2013-02-26 10:57:00,
2013-02-26 03:02:00,37.4,34.9,30.19,NNW,340,0.0,3.0,90,0.00,,,0.00,0.0,meteohub,2013-02-26 11:02:00,
2013-02-26 03:07:00,37.4,34.9,30.19,NNW,340,0.0,3.0,90,0.00,,,0.00,0.0,meteohub,2013-02-26 11:07:00,
2013-02-26 03:12:00,37.4,34.9,30.19,NNW,340,0.0,3.0,90,0.00,,,0.00,0.0,meteohub,2013-02-26 11:12:00,
2013-02-26 03:17:00,37.2,34.5,30.19,NNW,340,0.0,3.0,89,0.00,,,0.00,0.0,meteohub,2013-02-26 11:17:00,
2013-02-26 03:22:00,36.9,33.8,30.19,NNW,340,0.0,3.0,88,0.00,,,0.00,0.0,meteohub,2013-02-26 11:22:00,
2013-02-26 03:27:00,36.7,33.6,30.19,NNW,340,0.0,2.0,88,0.00,,,0.00,0.0,meteohub,2013-02-26 11:27:00,
2013-02-26 03:32:00,36.7,33.6,30.19,NNW,340,1.0,2.0,88,0.00,,,0.00,0.0,meteohub,2013-02-26 11:32:00,
2013-02-26 03:37:00,36.5,33.4,30.19,NNW,340,0.0,2.0,88,0.00,,,0.00,0.0,meteohub,2013-02-26 11:37:00,
2013-02-26 03:42:00,36.1,33.1,30.19,NNW,340,2.0,2.0,88,0.00,,,0.00,0.0,meteohub,2013-02-26 11:42:00,
2013-02-26 03:47:00,36.0,32.9,30.19,North,355,1.0,3.0,88,0.00,,,0.00,0.0,meteohub,2013-02-26 11:47:00,
2013-02-26 03:52:00,36.0,32.9,30.20,North,355,2.0,3.0,88,0.00,,,0.00,0.0,meteohub,2013-02-26 11:52:00,
2013-02-26 03:57:00,35.8,32.5,30.20,NNW,344,2.0,5.0,88,0.00,,,0.00,0.0,meteohub,2013-02-26 11:57:00,
2013-02-26 04:02:00,35.8,32.9,30.20,WSW,246,4.0,5.0,89,0.00,,,0.00,0.0,meteohub,2013-02-26 12:02:00,
2013-02-26 04:07:00,35.8,32.9,30.20,West,271,2.0,5.0,89,0.00,,,0.00,0.0,meteohub,2013-02-26 12:07:00,
2013-02-26 04:12:00,35.8,32.9,30.20,West,271,0.0,4.0,89,0.00,,,0.00,0.0,meteohub,2013-02-26 12:12:00,
2013-02-26 04:17:00,35.6,32.7,30.20,South,171,2.0,4.0,89,0.00,,,0.00,0.0,meteohub,2013-02-26 12:17:00,
2013-02-26 04:22:00,35.4,32.7,30.20,South,171,2.0,4.0,90,0.00,,,0.00,0.0,meteohub,2013-02-26 12:22:00,
2013-02-26 04:27:00,35.6,32.9,30.20,South,171,0.0,4.0,90,0.00,,,0.00,0.0,meteohub,2013-02-26 12:27:00,
2013-02-26 04:32:00,35.4,32.7,30.20,South,171,2.0,4.0,90,0.00,,,0.00,0.0,meteohub,2013-02-26 12:32:00,
2013-02-26 04:37:00,35.4,32.7,30.19,South,171,0.0,3.0,90,0.00,,,0.00,0.0,meteohub,2013-02-26 12:37:00,
2013-02-26 04:42:00,35.4,33.1,30.20,South,171,0.0,2.0,91,0.00,,,0.00,0.0,meteohub,2013-02-26 12:42:00,
2013-02-26 04:47:00,35.6,33.3,30.19,South,171,0.0,3.0,91,0.00,,,0.00,0.0,meteohub,2013-02-26 12:47:00,
2013-02-26 04:52:00,35.6,33.3,30.20,South,171,3.0,3.0,91,0.00,,,0.00,0.0,meteohub,2013-02-26 12:52:00,
2013-02-26 04:57:00,35.8,33.4,30.20,South,172,0.0,3.0,91,0.00,,,0.00,0.0,meteohub,2013-02-26 12:57:00,
2013-02-26 05:02:00,35.8,33.4,30.20,South,172,2.0,3.0,91,0.00,,,0.00,0.0,meteohub,2013-02-26 13:02:00,
2013-02-26 05:07:00,35.8,33.4,30.19,South,172,2.0,3.0,91,0.00,,,0.00,0.0,meteohub,2013-02-26 13:07:00,
2013-02-26 05:12:00,36.0,33.8,30.20,South,172,0.0,3.0,92,0.00,,,0.00,0.0,meteohub,2013-02-26 13:12:00,
2013-02-26 05:17:00,36.0,34.0,30.20,WSW,257,0.0,3.0,92,0.00,,,0.00,0.0,meteohub,2013-02-26 13:17:00,
2013-02-26 05:22:00,36.0,34.0,30.20,WSW,257,0.0,3.0,92,0.00,,,0.00,0.0,meteohub,2013-02-26 13:22:00,
2013-02-26 05:27:00,36.0,34.0,30.20,WSW,257,1.0,3.0,92,0.00,,,0.00,0.0,meteohub,2013-02-26 13:27:00,
2013-02-26 05:32:00,36.0,34.0,30.20,WSW,257,0.0,4.0,92,0.00,,,0.00,0.0,meteohub,2013-02-26 13:32:00,
2013-02-26 05:37:00,36.0,34.0,30.20,WSW,257,0.0,4.0,92,0.00,,,0.00,0.0,meteohub,2013-02-26 13:37:00,
2013-02-26 05:42:00,36.0,33.8,30.20,WSW,257,1.0,4.0,92,0.00,,,0.00,0.0,meteohub,2013-02-26 13:42:00,
2013-02-26 05:47:00,35.8,33.4,30.20,WSW,257,0.0,2.0,91,0.00,,,0.00,0.0,meteohub,2013-02-26 13:47:00,
2013-02-26 05:52:00,35.4,33.1,30.21,WNW,288,1.0,2.0,91,0.00,,,0.00,0.0,meteohub,2013-02-26 13:52:00,
2013-02-26 05:57:00,35.2,32.9,30.21,WNW,288,0.0,3.0,91,0.00,,,0.00,0.0,meteohub,2013-02-26 13:57:00,
2013-02-26 06:02:00,35.1,32.7,30.21,WNW,288,0.0,3.0,91,0.00,,,0.00,0.0,meteohub,2013-02-26 14:02:00,
2013-02-26 06:07:00,34.9,32.5,30.21,WNW,288,0.0,3.0,91,0.00,,,0.00,0.0,meteohub,2013-02-26 14:07:00,
2013-02-26 06:12:00,34.7,32.4,30.21,WNW,288,1.0,2.0,91,0.00,,,0.00,0.0,meteohub,2013-02-26 14:12:00,
2013-02-26 06:17:00,34.5,32.2,30.21,WNW,300,0.0,3.0,91,0.00,,,0.00,0.0,meteohub,2013-02-26 14:17:00,
2013-02-26 06:22:00,34.3,32.0,30.21,WNW,300,0.0,3.0,91,0.00,,,0.00,0.0,meteohub,2013-02-26 14:22:00,
2013-02-26 06:27:00,34.3,32.0,30.21,WNW,300,0.0,3.0,91,0.00,,,0.00,0.0,meteohub,2013-02-26 14:27:00,
2013-02-26 06:32:00,34.2,31.8,30.21,SW,232,0.0,2.0,91,0.00,,,0.00,0.0,meteohub,2013-02-26 14:32:00,
2013-02-26 06:37:00,34.0,31.6,30.21,NE,55,0.0,4.0,91,0.00,,,0.00,0.0,meteohub,2013-02-26 14:37:00,
2013-02-26 06:42:00,34.0,31.6,30.21,NE,53,1.0,4.0,91,0.00,,,0.00,5.0,meteohub,2013-02-26 14:42:00,
2013-02-26 06:47:00,34.2,32.2,30.21,ENE,75,0.0,4.0,92,0.00,,,0.00,7.0,meteohub,2013-02-26 14:47:00,
2013-02-26 06:52:00,34.2,32.2,30.21,SSW,213,0.0,3.0,92,0.00,,,0.00,9.0,meteohub,2013-02-26 14:52:00,
2013-02-26 06:57:00,34.3,32.4,30.22,North,355,0.0,3.0,92,0.00,,,0.00,11.0,meteohub,2013-02-26 14:57:00,
2013-02-26 07:02:00,34.2,32.2,30.21,SW,217,4.0,4.0,92,0.00,,,0.00,12.0,meteohub,2013-02-26 15:02:00,
2013-02-26 07:08:00,34.3,32.4,30.21,West,267,1.0,4.0,92,0.00,,,0.00,14.0,meteohub,2013-02-26 15:08:00,
2013-02-26 07:13:00,34.7,32.9,30.20,West,267,2.0,4.0,93,0.00,,,0.00,35.0,meteohub,2013-02-26 15:13:00,
2013-02-26 07:18:00,35.1,33.3,30.21,North,355,0.0,4.0,93,0.00,,,0.00,53.0,meteohub,2013-02-26 15:18:00,
2013-02-26 07:23:00,35.4,33.6,30.20,SSW,211,2.0,5.0,93,0.00,,,0.00,67.0,meteohub,2013-02-26 15:23:00,
2013-02-26 07:28:00,36.0,34.2,30.20,WSW,252,0.0,5.0,93,0.00,,,0.00,83.0,meteohub,2013-02-26 15:28:00,
2013-02-26 07:33:00,36.5,34.9,30.21,ESE,117,3.0,5.0,93,0.00,,,0.00,98.0,meteohub,2013-02-26 15:33:00,
2013-02-26 07:38:00,37.0,35.4,30.20,SW,222,1.0,5.0,93,0.00,,,0.00,114.0,meteohub,2013-02-26 15:38:00,
2013-02-26 07:43:00,37.8,36.1,30.20,SW,222,0.0,5.0,94,0.00,,,0.00,132.0,meteohub,2013-02-26 15:43:00,
2013-02-26 07:48:00,38.5,36.9,30.21,SSW,200,1.0,5.0,94,0.00,,,0.00,149.0,meteohub,2013-02-26 15:48:00,
2013-02-26 07:53:00,39.6,37.9,30.21,SSW,200,1.0,3.0,94,0.00,,,0.00,167.0,meteohub,2013-02-26 15:53:00,
2013-02-26 07:59:00,40.3,38.7,30.21,SSW,195,2.0,3.0,93,0.00,,,0.00,185.0,meteohub,2013-02-26 15:59:00,
2013-02-26 08:04:00,41.0,38.8,30.21,SSW,197,2.0,4.0,91,0.00,,,0.00,202.0,meteohub,2013-02-26 16:04:00,
2013-02-26 08:09:00,41.9,39.0,30.22,SSW,197,1.0,4.0,89,0.00,,,0.00,218.0,meteohub,2013-02-26 16:09:00,
2013-02-26 08:14:00,43.2,39.4,30.21,SSE,161,3.0,4.0,86,0.00,,,0.00,234.0,meteohub,2013-02-26 16:14:00,
2013-02-26 08:19:00,44.1,38.5,30.21,SSE,161,2.0,4.0,80,0.00,,,0.00,248.0,meteohub,2013-02-26 16:19:00,
2013-02-26 08:24:00,44.8,38.7,30.21,South,178,0.0,4.0,78,0.00,,,0.00,264.0,meteohub,2013-02-26 16:24:00,
2013-02-26 08:29:00,45.9,39.7,30.21,South,178,0.0,4.0,78,0.00,,,0.00,281.0,meteohub,2013-02-26 16:29:00,
2013-02-26 08:34:00,47.1,39.7,30.21,ESE,123,1.0,3.0,74,0.00,,,0.00,299.0,meteohub,2013-02-26 16:34:00,
2013-02-26 08:40:00,48.2,39.7,30.21,SE,136,4.0,5.0,71,0.00,,,0.00,316.0,meteohub,2013-02-26 16:40:00,
2013-02-26 08:45:00,48.9,39.6,30.21,SSE,158,4.0,5.0,69,0.00,,,0.00,334.0,meteohub,2013-02-26 16:45:00,
2013-02-26 08:50:00,49.5,39.2,30.22,SE,128,3.0,5.0,66,0.00,,,0.00,352.0,meteohub,2013-02-26 16:50:00,
2013-02-26 08:55:00,50.0,38.1,30.21,SE,136,4.0,5.0,62,0.00,,,0.00,149.0,meteohub,2013-02-26 16:55:00,
2013-02-26 09:00:00,50.7,37.0,30.21,South,191,2.0,6.0,58,0.00,,,0.00,381.0,meteohub,2013-02-26 17:00:00,
2013-02-26 09:05:00,51.3,37.2,30.21,SE,144,3.0,6.0,57,0.00,,,0.00,397.0,meteohub,2013-02-26 17:05:00,
2013-02-26 09:10:00,52.0,37.4,30.21,South,181,0.0,6.0,56,0.00,,,0.00,411.0,meteohub,2013-02-26 17:10:00,
2013-02-26 09:15:00,52.7,36.1,30.21,SSW,207,0.0,6.0,52,0.00,,,0.00,424.0,meteohub,2013-02-26 17:15:00,
2013-02-26 09:20:00,53.4,35.2,30.21,South,184,2.0,6.0,48,0.00,,,0.00,443.0,meteohub,2013-02-26 17:20:00,
2013-02-26 09:26:00,54.0,31.8,30.21,SW,235,4.0,6.0,41,0.00,,,0.00,455.0,meteohub,2013-02-26 17:26:00,
2013-02-26 09:31:00,54.5,32.2,30.20,SSW,201,2.0,6.0,41,0.00,,,0.00,468.0,meteohub,2013-02-26 17:31:00,
2013-02-26 09:36:00,55.0,34.0,30.20,SSW,210,0.0,6.0,43,0.00,,,0.00,482.0,meteohub,2013-02-26 17:36:00,
2013-02-26 09:41:00,55.8,34.5,30.20,SSW,202,0.0,5.0,43,0.00,,,0.00,494.0,meteohub,2013-02-26 17:41:00,
2013-02-26 09:46:00,56.3,33.3,30.20,SSW,194,5.0,5.0,40,0.00,,,0.00,508.0,meteohub,2013-02-26 17:46:00,
2013-02-26 09:51:00,57.0,34.5,30.20,SSE,161,4.0,6.0,41,0.00,,,0.00,522.0,meteohub,2013-02-26 17:51:00,
2013-02-26 09:56:00,57.6,32.7,30.19,ESE,119,4.0,6.0,37,0.00,,,0.00,534.0,meteohub,2013-02-26 17:56:00,
2013-02-26 10:01:00,58.3,31.5,30.19,SSE,158,3.0,6.0,34,0.00,,,0.00,547.0,meteohub,2013-02-26 18:01:00,
2013-02-26 10:06:00,58.6,30.9,30.19,SSW,194,4.0,6.0,33,0.00,,,0.00,559.0,meteohub,2013-02-26 18:06:00,
2013-02-26 10:11:00,59.0,29.8,30.19,South,187,3.0,5.0,31,0.00,,,0.00,570.0,meteohub,2013-02-26 18:11:00,
2013-02-26 10:17:00,59.5,30.2,30.19,SW,215,3.0,6.0,31,0.00,,,0.00,580.0,meteohub,2013-02-26 18:17:00,
2013-02-26 10:22:00,59.9,29.7,30.19,South,182,3.0,6.0,30,0.00,,,0.00,589.0,meteohub,2013-02-26 18:22:00,
2013-02-26 10:27:00,59.5,27.0,30.18,SSW,208,2.0,6.0,29,0.00,,,0.00,598,weatherlink.com 1.10,2013-02-26 18:27:00,
2013-02-26 10:32:00,60.6,29.5,30.19,SSW,192,2.0,6.0,29,0.00,,,0.00,606.0,meteohub,2013-02-26 18:32:00,
2013-02-26 10:37:00,61.0,29.8,30.19,SE,129,4.0,6.0,29,0.00,,,0.00,615.0,meteohub,2013-02-26 18:37:00,
2013-02-26 10:42:00,61.7,30.6,30.19,SSE,155,5.0,6.0,29,0.00,,,0.00,626.0,meteohub,2013-02-26 18:42:00,
2013-02-26 10:47:00,61.9,29.8,30.19,SW,225,3.0,9.0,28,0.00,,,0.00,635.0,meteohub,2013-02-26 18:47:00,
2013-02-26 10:52:00,61.9,27.3,30.19,South,190,4.0,9.0,25,0.00,,,0.00,642.0,meteohub,2013-02-26 18:52:00,
2013-02-26 10:57:00,62.1,27.3,30.19,WSW,245,2.0,9.0,25,0.00,,,0.00,649.0,meteohub,2013-02-26 18:57:00,
2013-02-26 11:02:00,62.4,28.6,30.19,SSW,204,2.0,9.0,26,0.00,,,0.00,383.0,meteohub,2013-02-26 19:02:00,
2013-02-26 11:07:00,62.6,26.1,30.18,SSE,160,5.0,7.0,23,0.00,,,0.00,664.0,meteohub,2013-02-26 19:07:00,
2013-02-26 11:12:00,62.8,26.1,30.18,South,180,1.0,7.0,23,0.00,,,0.00,670.0,meteohub,2013-02-26 19:12:00,
2013-02-26 11:17:00,63.1,27.3,30.18,SE,128,1.0,7.0,24,0.00,,,0.00,677.0,meteohub,2013-02-26 19:17:00,
2013-02-26 11:22:00,63.5,26.8,30.18,SE,132,2.0,6.0,23,0.00,,,0.00,647.0,meteohub,2013-02-26 19:22:00,
2013-02-26 11:27:00,63.7,27.0,30.18,SW,219,5.0,6.0,23,0.00,,,0.00,624.0,meteohub,2013-02-26 19:27:00,
2013-02-26 11:32:00,63.9,24.8,30.18,South,180,0.0,7.0,21,0.00,,,0.00,693.0,meteohub,2013-02-26 19:32:00,
2013-02-26 11:37:00,64.0,25.0,30.18,SSW,202,1.0,7.0,21,0.00,,,0.00,696.0,meteohub,2013-02-26 19:37:00,
2013-02-26 11:42:00,64.2,25.2,30.19,SSW,208,2.0,7.0,21,0.00,,,0.00,700.0,meteohub,2013-02-26 19:42:00,
2013-02-26 11:47:00,64.2,23.0,30.19,SW,219,2.0,7.0,19,0.00,,,0.00,705.0,meteohub,2013-02-26 19:47:00,
2013-02-26 11:52:00,64.4,23.0,30.18,SW,219,6.0,8.0,19,0.00,,,0.00,705.0,meteohub,2013-02-26 19:52:00,
2013-02-26 11:57:00,64.4,23.0,30.18,West,277,5.0,8.0,19,0.00,,,0.00,707.0,meteohub,2013-02-26 19:57:00,
2013-02-26 12:02:00,64.4,23.0,30.18,WSW,254,3.0,8.0,19,0.00,,,0.00,708.0,meteohub,2013-02-26 20:02:00,
2013-02-26 12:07:00,64.0,22.8,30.18,West,266,1.0,8.0,19,0.00,,,0.00,712.0,meteohub,2013-02-26 20:07:00,
2013-02-26 12:12:00,64.2,25.2,30.18,WNW,302,3.0,8.0,21,0.00,,,0.00,712.0,meteohub,2013-02-26 20:12:00,
2013-02-26 12:17:00,64.4,23.0,30.18,West,275,7.0,8.0,19,0.00,,,0.00,714.0,meteohub,2013-02-26 20:17:00,
2013-02-26 12:22:00,64.6,25.5,30.17,NW,325,3.0,7.0,21,0.00,,,0.00,714.0,meteohub,2013-02-26 20:22:00,
2013-02-26 12:27:00,64.8,20.8,30.17,SW,233,2.0,7.0,17,0.00,,,0.00,717.0,meteohub,2013-02-26 20:27:00,
2013-02-26 12:32:00,65.1,19.8,30.17,SSW,211,3.0,7.0,16,0.00,,,0.00,717.0,meteohub,2013-02-26 20:32:00,
2013-02-26 12:37:00,65.3,19.8,30.17,SSW,209,2.0,6.0,16,0.00,,,0.00,714.0,meteohub,2013-02-26 20:37:00,
2013-02-26 12:42:00,65.7,21.6,30.17,SSE,158,5.0,6.0,17,0.00,,,0.00,715.0,meteohub,2013-02-26 20:42:00,
2013-02-26 12:47:00,66.0,24.3,30.16,SE,128,1.0,6.0,19,0.00,,,0.00,710.0,meteohub,2013-02-26 20:47:00,
2013-02-26 12:52:00,66.2,23.2,30.16,SE,128,0.0,6.0,18,0.00,,,0.00,707.0,meteohub,2013-02-26 20:52:00,
2013-02-26 12:57:00,66.4,23.4,30.16,NE,36,1.0,6.0,18,0.00,,,0.00,705.0,meteohub,2013-02-26 20:57:00,
2013-02-26 13:02:00,66.4,20.8,30.16,NE,56,3.0,4.0,16,0.00,,,0.00,703.0,meteohub,2013-02-26 21:02:00,
2013-02-26 13:07:00,66.4,20.8,30.15,ESE,107,0.0,5.0,16,0.00,,,0.00,698.0,meteohub,2013-02-26 21:07:00,
2013-02-26 13:12:00,66.4,25.9,30.15,NW,305,3.0,8.0,20,0.00,,,0.00,694.0,meteohub,2013-02-26 21:12:00,
2013-02-26 13:17:00,66.4,24.8,30.15,NNW,342,4.0,8.0,19,0.00,,,0.00,689.0,meteohub,2013-02-26 21:17:00,
2013-02-26 13:22:00,66.4,24.8,30.15,West,259,4.0,9.0,19,0.00,,,0.00,485.0,meteohub,2013-02-26 21:22:00,
2013-02-26 13:27:00,66.6,26.1,30.15,WNW,303,2.0,9.0,20,0.00,,,0.00,682.0,meteohub,2013-02-26 21:27:00,
2013-02-26 13:32:00,66.7,22.6,30.15,WNW,292,4.0,7.0,17,0.00,,,0.00,673.0,meteohub,2013-02-26 21:32:00,
2013-02-26 13:37:00,66.4,23.4,30.15,WNW,286,2.0,8.0,18,0.00,,,0.00,668.0,meteohub,2013-02-26 21:37:00,
2013-02-26 13:42:00,66.6,24.8,30.15,WNW,293,3.0,8.0,19,0.00,,,0.00,663.0,meteohub,2013-02-26 21:42:00,
2013-02-26 13:47:00,66.4,23.4,30.15,NW,320,2.0,8.0,18,0.00,,,0.00,656.0,meteohub,2013-02-26 21:47:00,
2013-02-26 13:52:00,66.4,25.9,30.15,NNW,343,3.0,8.0,20,0.00,,,0.00,647.0,meteohub,2013-02-26 21:52:00,
2013-02-26 13:57:00,66.7,23.7,30.15,WNW,286,4.0,8.0,18,0.00,,,0.00,638.0,meteohub,2013-02-26 21:57:00,
2013-02-26 14:02:00,66.9,23.9,30.14,West,277,0.0,8.0,18,0.00,,,0.00,631.0,meteohub,2013-02-26 22:02:00,
2013-02-26 14:07:00,66.9,22.6,30.14,WNW,282,7.0,8.0,17,0.00,,,0.00,624.0,meteohub,2013-02-26 22:07:00,
2013-02-26 14:12:00,66.7,22.6,30.14,North,355,6.0,11.0,17,0.00,,,0.00,613.0,meteohub,2013-02-26 22:12:00,
2013-02-26 14:17:00,66.9,25.2,30.14,North,355,4.0,11.0,19,0.00,,,0.00,603.0,meteohub,2013-02-26 22:17:00,
2013-02-26 14:22:00,67.1,24.1,30.14,NNW,331,4.0,9.0,18,0.00,,,0.00,596.0,meteohub,2013-02-26 22:22:00,
2013-02-26 14:27:00,67.1,22.8,30.14,NNW,327,4.0,8.0,17,0.00,,,0.00,585.0,meteohub,2013-02-26 22:27:00,
2013-02-26 14:32:00,67.1,22.8,30.14,NW,315,4.0,8.0,17,0.00,,,0.00,575.0,meteohub,2013-02-26 22:32:00,
2013-02-26 14:37:00,67.1,26.6,30.14,North,5,6.0,8.0,20,0.00,,,0.00,564.0,meteohub,2013-02-26 22:37:00,
2013-02-26 14:42:00,67.1,22.8,30.14,NNW,342,1.0,8.0,17,0.00,,,0.00,554.0,meteohub,2013-02-26 22:42:00,
2013-02-26 14:47:00,67.1,25.3,30.14,NW,318,3.0,8.0,19,0.00,,,0.00,543.0,meteohub,2013-02-26 22:47:00,
2013-02-26 14:52:00,67.1,22.8,30.14,WNW,289,1.0,8.0,17,0.00,,,0.00,526.0,meteohub,2013-02-26 22:52:00,
2013-02-26 14:57:00,67.1,25.3,30.14,NNW,327,2.0,8.0,19,0.00,,,0.00,448.0,meteohub,2013-02-26 22:57:00,
2013-02-26 15:02:00,67.1,24.1,30.14,WNW,302,3.0,8.0,18,0.00,,,0.00,506.0,meteohub,2013-02-26 23:02:00,
2013-02-26 15:07:00,67.1,24.1,30.14,WNW,284,3.0,8.0,18,0.00,,,0.00,496.0,meteohub,2013-02-26 23:07:00,
2013-02-26 15:12:00,67.1,24.1,30.14,WNW,295,0.0,11.0,18,0.00,,,0.00,487.0,meteohub,2013-02-26 23:12:00,
2013-02-26 15:17:00,67.1,22.8,30.14,WNW,284,4.0,11.0,17,0.00,,,0.00,476.0,meteohub,2013-02-26 23:17:00,
2013-02-26 15:22:00,67.3,23.0,30.13,NNW,348,1.0,10.0,17,0.00,,,0.00,462.0,meteohub,2013-02-26 23:22:00,
2013-02-26 15:27:00,67.6,23.2,30.13,NW,317,4.0,9.0,17,0.00,,,0.00,446.0,meteohub,2013-02-26 23:27:00,
2013-02-26 15:32:00,67.5,23.0,30.13,NW,313,3.0,10.0,17,0.00,,,0.00,431.0,meteohub,2013-02-26 23:32:00,
2013-02-26 15:37:00,67.5,21.7,30.13,WNW,289,5.0,10.0,16,0.00,,,0.00,415.0,meteohub,2013-02-26 23:37:00,
2013-02-26 15:42:00,67.3,23.0,30.13,WNW,291,3.0,13.0,17,0.00,,,0.00,401.0,meteohub,2013-02-26 23:42:00,
2013-02-26 15:47:00,67.3,24.3,30.13,North,355,7.0,13.0,18,0.00,,,0.00,385.0,meteohub,2013-02-26 23:47:00,
2013-02-26 15:52:00,67.5,24.3,30.13,NNW,336,2.0,13.0,18,0.00,,,0.00,371.0,meteohub,2013-02-26 23:52:00,
2013-02-26 15:57:00,67.5,24.3,30.13,WNW,288,2.0,9.0,18,0.00,,,0.00,355.0,meteohub,2013-02-26 23:57:00,
2013-02-26 16:02:00,67.5,24.3,30.13,NW,317,4.0,8.0,18,0.00,,,0.00,343.0,meteohub,2013-02-27 00:02:00,
2013-02-26 16:07:00,67.3,25.5,30.13,NNW,347,6.0,7.0,19,0.00,,,0.00,325.0,meteohub,2013-02-27 00:07:00,
2013-02-26 16:12:00,67.3,24.3,30.13,WNW,299,3.0,12.0,18,0.00,,,0.00,308.0,meteohub,2013-02-27 00:12:00,
2013-02-26 16:17:00,67.1,24.1,30.13,NNW,327,7.0,12.0,18,0.00,,,0.00,285.0,meteohub,2013-02-27 00:17:00,
2013-02-26 16:22:00,66.9,22.6,30.13,NNW,346,3.0,9.0,17,0.00,,,0.00,130.0,meteohub,2013-02-27 00:22:00,
2013-02-26 16:27:00,66.9,23.9,30.13,WNW,293,2.0,9.0,18,0.00,,,0.00,42.0,meteohub,2013-02-27 00:27:00,
2013-02-26 16:32:00,66.7,23.7,30.12,NNW,342,4.0,9.0,18,0.00,,,0.00,47.0,meteohub,2013-02-27 00:32:00,
2013-02-26 16:37:00,66.4,24.8,30.12,NW,326,5.0,8.0,19,0.00,,,0.00,54.0,meteohub,2013-02-27 00:37:00,
2013-02-26 16:42:00,66.2,24.6,30.12,WNW,297,3.0,6.0,19,0.00,,,0.00,60.0,meteohub,2013-02-27 00:42:00,
2013-02-26 16:47:00,66.2,24.4,30.12,WNW,286,2.0,6.0,19,0.00,,,0.00,58.0,meteohub,2013-02-27 00:47:00,
2013-02-26 16:52:00,65.7,25.2,30.12,WNW,289,1.0,6.0,20,0.00,,,0.00,62.0,meteohub,2013-02-27 00:52:00,
2013-02-26 16:57:00,65.5,25.0,30.12,WNW,285,2.0,5.0,20,0.00,,,0.00,67.0,meteohub,2013-02-27 00:57:00,
2013-02-26 17:02:00,65.3,26.1,30.12,NNW,346,2.0,5.0,21,0.00,,,0.00,69.0,meteohub,2013-02-27 01:02:00,
2013-02-26 17:07:00,65.1,25.9,30.13,WNW,286,3.0,5.0,21,0.00,,,0.00,65.0,meteohub,2013-02-27 01:07:00,
2013-02-26 17:12:00,65.1,25.9,30.13,WNW,290,3.0,7.0,21,0.00,,,0.00,63.0,meteohub,2013-02-27 01:12:00,
2013-02-26 17:17:00,64.9,25.7,30.13,WNW,298,2.0,7.0,21,0.00,,,0.00,62.0,meteohub,2013-02-27 01:17:00,
2013-02-26 17:22:00,64.9,25.7,30.13,WNW,286,1.0,7.0,21,0.00,,,0.00,53.0,meteohub,2013-02-27 01:22:00,
2013-02-26 17:27:00,64.9,24.6,30.13,WNW,282,2.0,6.0,20,0.00,,,0.00,40.0,meteohub,2013-02-27 01:27:00,
2013-02-26 17:32:00,64.9,24.6,30.13,West,278,1.0,6.0,20,0.00,,,0.00,33.0,meteohub,2013-02-27 01:32:00,
2013-02-26 17:37:00,64.8,26.8,30.13,WNW,286,2.0,6.0,22,0.00,,,0.00,28.0,meteohub,2013-02-27 01:37:00,
2013-02-26 17:42:00,64.4,31.3,30.13,West,280,4.0,6.0,27,0.00,,,0.00,25.0,meteohub,2013-02-27 01:42:00,
2013-02-26 17:47:00,63.5,33.6,30.13,West,268,3.0,7.0,31,0.00,,,0.00,19.0,meteohub,2013-02-27 01:47:00,
2013-02-26 17:52:00,62.6,34.3,30.13,West,269,3.0,7.0,33,0.00,,,0.00,12.0,meteohub,2013-02-27 01:52:00,
2013-02-26 17:57:00,62.1,34.0,30.13,WSW,252,0.0,7.0,33,0.00,,,0.00,9.0,meteohub,2013-02-27 01:57:00,
2013-02-26 18:02:00,61.9,33.6,30.13,WSW,252,0.0,5.0,33,0.00,,,0.00,5.0,meteohub,2013-02-27 02:02:00,
2013-02-26 18:07:00,61.5,34.0,30.14,WSW,252,0.0,5.0,34,0.00,,,0.00,0.0,meteohub,2013-02-27 02:07:00,
2013-02-26 18:13:00,61.2,33.8,30.14,WSW,252,0.0,3.0,34,0.00,,,0.00,0.0,meteohub,2013-02-27 02:13:00,
2013-02-26 18:18:00,60.6,34.0,30.14,West,276,0.0,3.0,35,0.00,,,0.00,0.0,meteohub,2013-02-27 02:18:00,
2013-02-26 18:23:00,60.3,34.3,30.15,WSW,252,1.0,4.0,36,0.00,,,0.00,0.0,meteohub,2013-02-27 02:23:00,
2013-02-26 18:28:00,59.9,35.4,30.15,SW,230,1.0,4.0,38,0.00,,,0.00,0.0,meteohub,2013-02-27 02:28:00,
2013-02-26 18:33:00,59.5,36.1,30.15,SW,230,0.0,4.0,40,0.00,,,0.00,0.0,meteohub,2013-02-27 02:33:00,
2013-02-26 18:38:00,59.2,36.5,30.15,SW,230,0.0,4.0,41,0.00,,,0.00,0.0,meteohub,2013-02-27 02:38:00,
2013-02-26 18:43:00,58.8,36.7,30.15,SW,230,0.0,3.0,42,0.00,,,0.00,0.0,meteohub,2013-02-27 02:43:00,
2013-02-26 18:49:00,58.5,37.0,30.15,SW,230,0.0,3.0,43,0.00,,,0.00,0.0,meteohub,2013-02-27 02:49:00,
2013-02-26 18:54:00,58.1,36.7,30.16,SW,230,1.0,2.0,43,0.00,,,0.00,0.0,meteohub,2013-02-27 02:54:00,
2013-02-26 18:59:00,57.6,36.1,30.16,SW,230,0.0,2.0,43,0.00,,,0.00,0.0,meteohub,2013-02-27 02:59:00,
2013-02-26 19:04:00,57.6,36.7,30.16,SW,230,0.0,2.0,44,0.00,,,0.00,0.0,meteohub,2013-02-27 03:04:00,
2013-02-26 19:09:00,57.0,36.7,30.16,SW,230,1.0,2.0,45,0.00,,,0.00,0.0,meteohub,2013-02-27 03:09:00,
2013-02-26 19:14:00,56.5,36.7,30.16,SW,228,3.0,3.0,46,0.00,,,0.00,0.0,meteohub,2013-02-27 03:14:00,
2013-02-26 19:19:00,56.1,37.0,30.16,SSW,213,2.0,2.0,47,0.00,,,0.00,0.0,meteohub,2013-02-27 03:19:00,
2013-02-26 19:24:00,55.8,37.8,30.16,SSW,200,1.0,4.0,49,0.00,,,0.00,0.0,meteohub,2013-02-27 03:24:00,
2013-02-26 19:29:00,55.2,37.8,30.16,SSW,193,0.0,4.0,50,0.00,,,0.00,0.0,meteohub,2013-02-27 03:29:00,
2013-02-26 19:34:00,55.0,37.9,30.16,SSW,193,0.0,4.0,51,0.00,,,0.00,0.0,meteohub,2013-02-27 03:34:00,
2013-02-26 19:40:00,54.7,38.1,30.17,SSW,193,0.0,4.0,52,0.00,,,0.00,0.0,meteohub,2013-02-27 03:40:00,
2013-02-26 19:45:00,54.3,37.9,30.17,SSW,193,0.0,4.0,52,0.00,,,0.00,0.0,meteohub,2013-02-27 03:45:00,
2013-02-26 19:50:00,54.1,37.8,30.17,SSW,193,0.0,2.0,52,0.00,,,0.00,0.0,meteohub,2013-02-27 03:50:00,
2013-02-26 19:55:00,54.0,37.9,30.17,SSW,193,0.0,2.0,53,0.00,,,0.00,0.0,meteohub,2013-02-27 03:55:00,
2013-02-26 20:00:00,53.6,38.1,30.17,SSW,193,0.0,1.0,54,0.00,,,0.00,0.0,meteohub,2013-02-27 04:00:00,
2013-02-26 20:05:00,53.2,37.8,30.17,SSW,193,0.0,1.0,54,0.00,,,0.00,0.0,meteohub,2013-02-27 04:05:00,
2013-02-26 20:10:00,53.1,37.9,30.17,SSW,193,0.0,0.0,55,0.00,,,0.00,0.0,meteohub,2013-02-27 04:10:00,
2013-02-26 20:16:00,52.7,37.6,30.17,SSW,193,0.0,0.0,55,0.00,,,0.00,0.0,meteohub,2013-02-27 04:16:00,
2013-02-26 20:21:00,52.3,37.8,30.18,SSW,193,0.0,0.0,56,0.00,,,0.00,0.0,meteohub,2013-02-27 04:21:00,
2013-02-26 20:26:00,52.0,37.4,30.18,SSW,193,0.0,0.0,56,0.00,,,0.00,0.0,meteohub,2013-02-27 04:26:00,
2013-02-26 20:31:00,51.8,37.2,30.18,SSW,193,0.0,0.0,56,0.00,,,0.00,0.0,meteohub,2013-02-27 04:31:00,
2013-02-26 20:36:00,51.3,37.2,30.18,West,261,0.0,0.0,57,0.00,,,0.00,0.0,meteohub,2013-02-27 04:36:00,
2013-02-26 20:41:00,50.9,36.9,30.18,West,261,0.0,3.0,57,0.00,,,0.00,0.0,meteohub,2013-02-27 04:41:00,
2013-02-26 20:46:00,50.5,36.5,30.18,West,261,0.0,3.0,57,0.00,,,0.00,0.0,meteohub,2013-02-27 04:46:00,
2013-02-26 20:51:00,50.0,36.5,30.19,West,261,1.0,2.0,58,0.00,,,0.00,0.0,meteohub,2013-02-27 04:51:00,
2013-02-26 20:56:00,49.3,36.5,30.19,West,261,0.0,3.0,60,0.00,,,0.00,0.0,meteohub,2013-02-27 04:56:00,
2013-02-26 21:00:00,48.9,36.3,30.19,West,261,0.0,3.0,60,0.00,,,0.00,0.0,meteohub,2013-02-27 05:00:00,
2013-02-26 21:01:00,48.9,36.1,30.19,West,261,0.0,3.0,60,0.00,,,0.00,0.0,meteohub,2013-02-27 05:01:00,
2013-02-26 21:06:00,48.4,36.3,30.19,West,261,1.0,3.0,62,0.00,,,0.00,0.0,meteohub,2013-02-27 05:06:00,
2013-02-26 21:11:00,48.0,36.5,30.19,NNW,331,0.0,3.0,63,0.00,,,0.00,0.0,meteohub,2013-02-27 05:11:00,
2013-02-26 21:17:00,47.5,36.3,30.19,NNW,342,0.0,4.0,64,0.00,,,0.00,0.0,meteohub,2013-02-27 05:17:00,
2013-02-26 21:22:00,47.3,36.1,30.19,NNW,342,1.0,4.0,64,0.00,,,0.00,0.0,meteohub,2013-02-27 05:22:00,
2013-02-26 21:27:00,46.9,36.0,30.19,NNW,344,2.0,4.0,64,0.00,,,0.00,0.0,meteohub,2013-02-27 05:27:00,
2013-02-26 21:32:00,46.6,35.6,30.19,NNW,343,0.0,4.0,64,0.00,,,0.00,0.0,meteohub,2013-02-27 05:32:00,
2013-02-26 21:37:00,46.2,35.8,30.19,NNW,343,0.0,4.0,65,0.00,,,0.00,0.0,meteohub,2013-02-27 05:37:00,
2013-02-26 21:42:00,46.2,35.8,30.19,North,355,0.0,4.0,65,0.00,,,0.00,0.0,meteohub,2013-02-27 05:42:00,
2013-02-26 21:47:00,46.0,35.6,30.20,North,350,1.0,4.0,65,0.00,,,0.00,0.0,meteohub,2013-02-27 05:47:00,
2013-02-26 21:52:00,45.7,35.2,30.20,North,350,0.0,4.0,65,0.00,,,0.00,0.0,meteohub,2013-02-27 05:52:00,
2013-02-26 21:57:00,45.5,35.1,30.20,North,350,0.0,4.0,65,0.00,,,0.00,0.0,meteohub,2013-02-27 05:57:00,
2013-02-26 22:02:00,45.3,34.9,30.20,North,350,3.0,3.0,65,0.00,,,0.00,0.0,meteohub,2013-02-27 06:02:00,
2013-02-26 22:07:00,45.1,35.1,30.20,North,350,0.0,3.0,66,0.00,,,0.00,0.0,meteohub,2013-02-27 06:07:00,
2013-02-26 22:12:00,45.0,34.9,30.20,North,350,1.0,3.0,66,0.00,,,0.00,0.0,meteohub,2013-02-27 06:12:00,
2013-02-26 22:17:00,44.8,35.1,30.20,North,350,0.0,3.0,67,0.00,,,0.00,0.0,meteohub,2013-02-27 06:17:00,
2013-02-26 22:22:00,44.6,34.9,30.20,North,350,0.0,2.0,67,0.00,,,0.00,0.0,meteohub,2013-02-27 06:22:00,
2013-02-26 22:27:00,44.6,34.7,30.20,North,350,1.0,2.0,67,0.00,,,0.00,0.0,meteohub,2013-02-27 06:27:00,
2013-02-26 22:32:00,44.6,34.7,30.20,North,350,3.0,3.0,67,0.00,,,0.00,0.0,meteohub,2013-02-27 06:32:00,
2013-02-26 22:37:00,44.2,34.7,30.20,North,350,1.0,3.0,68,0.00,,,0.00,0.0,meteohub,2013-02-27 06:37:00,
2013-02-26 22:42:00,44.1,34.5,30.20,North,350,0.0,3.0,68,0.00,,,0.00,0.0,meteohub,2013-02-27 06:42:00,
2013-02-26 22:47:00,43.9,34.5,30.21,North,350,3.0,3.0,68,0.00,,,0.00,0.0,meteohub,2013-02-27 06:47:00,
2013-02-26 22:52:00,43.7,34.3,30.21,North,350,1.0,3.0,68,0.00,,,0.00,0.0,meteohub,2013-02-27 06:52:00,
2013-02-26 22:57:00,43.3,34.0,30.21,North,350,0.0,3.0,68,0.00,,,0.00,0.0,meteohub,2013-02-27 06:57:00,
2013-02-26 23:02:00,43.2,33.8,30.21,North,350,1.0,3.0,68,0.00,,,0.00,0.0,meteohub,2013-02-27 07:02:00,
2013-02-26 23:07:00,43.0,34.0,30.21,North,350,1.0,3.0,69,0.00,,,0.00,0.0,meteohub,2013-02-27 07:07:00,
2013-02-26 23:12:00,42.8,34.2,30.22,North,350,0.0,2.0,70,0.00,,,0.00,0.0,meteohub,2013-02-27 07:12:00,
2013-02-26 23:17:00,42.6,34.0,30.22,North,350,1.0,2.0,70,0.00,,,0.00,0.0,meteohub,2013-02-27 07:17:00,
2013-02-26 23:22:00,42.4,33.8,30.22,North,350,0.0,2.0,70,0.00,,,0.00,0.0,meteohub,2013-02-27 07:22:00,
2013-02-26 23:27:00,42.3,34.0,30.22,NNW,343,2.0,3.0,71,0.00,,,0.00,0.0,meteohub,2013-02-27 07:27:00,
2013-02-26 23:32:00,42.3,34.0,30.22,NNW,343,2.0,4.0,71,0.00,,,0.00,0.0,meteohub,2013-02-27 07:32:00,
2013-02-26 23:37:00,42.1,33.8,30.22,NNW,343,0.0,4.0,71,0.00,,,0.00,0.0,meteohub,2013-02-27 07:37:00,
2013-02-26 23:42:00,42.1,34.2,30.22,NNW,334,0.0,4.0,72,0.00,,,0.00,0.0,meteohub,2013-02-27 07:42:00,
2013-02-26 23:47:00,42.3,34.0,30.22,NNW,334,1.0,4.0,71,0.00,,,0.00,0.0,meteohub,2013-02-27 07:47:00,
2013-02-26 23:52:00,42.3,33.6,30.22,NNW,338,1.0,4.0,70,0.00,,,0.00,0.0,meteohub,2013-02-27 07:52:00,
2013-02-26 23:57:00,42.1,33.4,30.22,NNW,338,3.0,3.0,70,0.00,,,0.00,0.0,meteohub,2013-02-27 07:57:00,